Location: Unspecified
(43.4354°N, 0.0000°E)
Time: 20:21:35
(UTC+00:00)

A-11 Canister half - Pass Details

Date: 29 June 2019
Orbit: 1514 x 1685 km, 47.2° (Epoch: 17 July)

Event Time Altitude Azimuth Distance (km) Brightness Sun altitude
Rises 08:45:17 0° 233° (SW) 4,927 11.4 44.8°
Reaches altitude 10° 08:48:28 10° 231° (SW) 3,933 11.0 45.3°
Maximum altitude 08:58:31 73° 150° (SSE) 1,716 10.5 47.1°
Drops below altitude 10° 09:08:17 10° 68° (ENE) 3,835 11.8 48.8°
Sets 09:11:21 0° 67° (ENE) 4,800 12.1 49.4°
